ALCOMSAT 1

Last updated on Wed Mar 11 2026 00:02:54 GMT+0000 (Coordinated Universal Time)

1 43039U 17078A 26069.42754110 -.00000184 00000+0 00000+0 0 9991 2 43039 0.0469 264.3849 0002724 76.9493 315.8813 1.00271654 30300
UTC large
Height (km)
Speed (km/s)
/
Latitude / Longitude
Inclination (degrees)
Orbital Period (minutes)
Azimuth
Elevation
Range (km)
Doppler Factor

Next 0 passes for location: London (51.5072 / 0.1276)

Sorry there are no passes over London.